Wind_Speed
41 38 35 27 28 22 20 24 26 31 32 33 37 27 25 27 23 15 24 22 17 17 19 18 15 16 16 13 9 7 8 7 7 5 6 3 1 5 4 8 2 2 5
40 36 34 35 31 17 19 28 28 33 33 36 39 37 37 23 23 20 22 22 18 20 19 14 16 16 18 14 9 7 7 6 7 6 3 3 2 4 5 7 5 3 6
40 36 32 33 27 38 27 22 26 37 35 37 45 42 34 26 26 25 23 20 20 23 14 17 17 15 15 9 9 9 9 8 6 4 4 4 2 3 2 3 2 4 5
36 29 18 27 17 22 22 34 41 38 39 38 25 27 29 26 24 22 20 19 22 23 23 21 19 17 16 14 12 9 11 11 9 7 6 8 3 1 3 1 3 6 6
36 33 26 21 23 27 30 27 32 31 26 16 16 19 23 25 24 19 16 19 24 23 22 19 16 14 14 15 13 14 13 13 11 9 8 11 7 4 1 2 6 6 7
42 42 46 38 33 35 41 42 39 34 34 32 30 34 34 28 24 24 21 21 24 22 20 19 15 10 12 15 13 16 13 15 14 10 10 15 11 7 2 2 10 8 7
52 49 50 57 52 51 50 47 50 50 51 47 41 31 28 27 27 26 25 25 25 25 20 16 17 15 14 15 12 17 20 15 16 12 11 12 13 9 4 7 4 4 6
62 58 59 60 59 55 61 62 54 49 53 55 45 26 30 27 28 31 27 31 30 31 22 14 12 10 7 9 21 19 15 14 15 15 15 13 13 12 8 10 6 5 6
64 66 67 66 66 66 60 70 68 63 55 54 51 43 30 20 24 29 29 34 34 35 16 17 8 4 12 23 23 15 15 14 13 15 14 13 17 15 12 10 8 6 7
68 67 70 69 68 70 77 78 76 70 63 60 53 43 30 32 25 28 34 36 38 33 24 21 23 21 21 17 12 16 15 15 13 14 13 14 19 16 14 10 9 9 8
74 71 70 74 74 62 80 81 77 72 64 56 58 48 41 31 22 28 37 39 41 41 31 29 30 29 24 11 10 15 16 15 14 14 11 19 19 17 15 12 10 10 9
80 78 76 76 79 79 76 80 79 80 73 61 60 53 46 40 31 31 41 43 45 47 40 41 32 29 29 22 13 13 16 19 15 14 14 21 19 17 14 13 11 10 9
87 85 84 82 83 83 80 84 78 80 77 70 65 59 53 46 38 35 46 47 47 48 44 47 39 35 33 21 19 15 14 20 16 16 17 21 20 18 15 13 12 10 8
89 88 90 89 88 87 85 85 84 82 81 73 67 59 56 49 45 41 51 50 50 49 45 41 40 39 33 26 21 15 12 21 16 19 18 20 21 20 17 15 13 11 8
86 88 89 94 93 92 89 84 87 85 84 75 71 62 56 46 47 37 55 53 50 52 48 46 37 42 41 29 26 19 11 22 17 21 20 22 22 22 19 16 14 12 9
84 86 87 90 94 96 96 92 88 87 82 78 74 67 59 53 48 42 60 57 54 55 49 47 42 39 38 31 30 19 13 19 19 22 22 25 24 22 20 18 15 11 11
84 85 84 84 88 94 98 93 93 91 86 81 77 71 64 60 51 47 63 61 56 57 48 44 45 46 42 37 36 28 17 23 22 25 26 27 26 25 22 21 16 13 12
87 88 87 85 85 88 95 96 93 93 89 86 83 76 67 63 54 54 67 65 58 60 54 45 45 44 44 41 39 30 20 25 26 27 30 31 29 29 25 23 19 17 15
94 94 93 90 89 88 91 94 93 95 93 87 81 77 75 65 64 62 67 70 63 65 59 49 43 50 51 45 39 35 30 31 29 31 35 36 32 32 27 24 22 21 19
108 102 100 95 93 93 94 89 94 95 97 92 82 76 76 75 67 68 72 70 67 68 58 56 47 46 47 46 43 40 33 27 36 34 37 38 35 35 30 26 23 25 22
118 113 109 101 97 95 96 94 99 97 97 95 92 82 76 75 72 74 77 70 73 73 65 61 52 54 44 46 47 45 41 33 41 40 39 40 40 38 34 30 27 28 24
116 119 115 113 102 98 99 98 97 97 99 97 94 94 83 78 77 75 79 71 75 74 73 65 61 54 47 49 50 50 50 40 41 44 43 41 39 37 34 32 32 31 25
118 117 123 118 113 105 103 102 101 100 101 103 94 91 95 86 83 75 82 75 73 74 78 72 69 57 53 53 57 56 51 45 44 42 40 40 40 38 36 34 30 29 28
109 119 119 124 121 113 107 106 106 103 108 111 105 94 95 95 87 84 88 79 77 75 81 76 71 62 59 62 60 61 58 50 46 43 40 40 38 39 38 34 31 31 31
99 110 117 123 124 121 116 110 109 107 108 113 109 101 95 96 92 89 85 91 83 80 80 78 77 65 65 67 64 62 63 58 55 51 47 43 42 41 40 36 36 38 33
84 103 114 116 128 128 124 118 115 113 113 111 113 106 102 99 95 91 91 94 83 82 84 78 78 71 68 68 66 61 65 63 61 58 53 46 46 40 41 40 38 36 35
Wind_Direction
241 240 240 249 261 272 275 286 261 248 252 271 284 285 286 288 281 273 281 289 277 261 248 251 220 216 220 238 238 249 263 233 224 225 224 202 9 349 329 336 259 169 153
243 249 244 246 260 241 280 267 263 256 279 272 275 288 291 279 281 273 274 275 263 252 246 226 197 207 216 226 234 223 234 221 228 241 163 177 281 320 308 319 303 188 154
233 238 250 253 249 256 269 275 267 260 268 262 274 278 277 276 279 277 277 265 247 239 234 193 186 200 200 232 241 230 230 212 212 211 192 208 220 359 324 307 256 203 185
231 224 236 222 231 246 258 259 261 264 253 263 267 263 271 275 273 270 272 252 240 226 214 190 181 195 208 219 226 233 233 218 223 227 234 241 243 162 40 243 177 179 184
231 215 215 198 226 240 234 234 232 229 235 260 277 285 279 264 254 253 243 239 226 220 212 192 190 204 217 218 222 245 234 230 226 236 251 253 235 214 11 269 203 182 166
227 221 217 220 237 244 232 244 249 247 260 271 280 281 281 269 251 246 236 220 215 205 205 200 194 200 228 243 233 252 258 267 239 240 265 246 228 207 202 217 154 160 170
230 226 231 225 232 239 243 249 247 254 262 267 273 275 273 266 256 248 230 216 203 200 193 197 188 214 227 235 250 251 272 259 246 247 271 235 224 208 202 206 178 171 173
233 234 234 234 231 235 241 246 250 255 260 263 265 267 269 270 255 239 224 218 205 200 179 179 182 213 224 258 249 264 263 253 245 243 259 236 220 199 209 208 197 191 192
238 235 239 240 238 236 240 242 246 250 252 256 263 262 257 272 245 235 224 213 201 201 179 186 220 234 254 249 248 252 255 250 234 244 251 227 201 196 204 206 203 197 204
239 235 237 238 236 236 239 242 244 247 251 249 256 249 254 262 243 227 219 209 203 179 192 212 237 220 228 244 248 248 243 245 233 247 236 204 189 195 199 198 204 204 206
239 235 235 233 233 230 242 246 247 250 248 250 252 248 250 248 238 219 213 207 206 196 199 194 211 215 228 241 243 242 237 231 238 231 204 191 186 193 197 195 209 210 219
239 237 233 232 230 234 237 243 247 252 252 249 247 248 255 256 246 220 211 209 211 204 199 204 197 213 224 236 234 240 237 227 235 217 197 190 190 199 197 202 203 211 225
237 236 235 232 231 231 233 240 243 245 248 248 248 246 251 256 250 219 209 210 214 206 203 207 201 213 221 230 231 230 240 218 227 207 202 201 195 195 195 210 201 211 223
232 233 233 231 230 230 230 236 238 242 245 246 248 247 245 243 247 214 207 210 213 210 208 210 213 214 217 226 228 214 248 220 226 207 210 199 196 195 194 198 199 214 224
231 229 230 230 229 229 229 230 237 238 242 243 245 246 242 229 229 216 209 211 210 212 208 217 221 221 222 218 229 215 239 220 235 213 216 207 200 196 196 197 207 213 222
229 228 228 228 228 226 227 228 230 235 238 239 239 240 236 230 224 227 211 212 209 213 211 214 218 216 216 223 230 217 214 228 220 212 214 209 200 195 193 200 204 211 210
228 225 226 226 225 224 223 226 229 230 233 235 235 236 233 233 226 226 214 215 212 209 210 216 221 223 222 228 232 226 215 220 222 224 211 211 202 200 200 205 206 214 204
229 225 226 226 226 224 223 220 226 227 228 230 232 233 228 225 216 218 214 215 214 207 211 219 223 223 223 221 231 224 211 221 227 224 215 212 207 200 204 209 214 210 208
227 226 224 225 223 225 221 222 220 229 226 227 226 227 225 221 225 217 216 214 213 204 214 213 225 225 221 220 228 222 213 220 225 228 215 214 212 205 209 218 224 221 209
228 225 225 222 222 222 223 220 217 225 227 224 222 224 221 222 222 224 216 216 212 204 207 214 211 228 228 224 223 221 215 225 227 222 214 213 212 211 212 214 216 200 208
226 223 222 222 221 222 222 219 218 220 228 223 221 220 218 219 216 217 213 216 214 205 202 210 212 223 223 225 223 223 228 222 227 218 213 214 213 210 213 220 219 205 206
229 223 220 219 220 221 221 218 216 218 224 228 224 222 217 215 218 221 212 213 217 206 204 205 215 216 224 221 224 221 227 222 229 220 218 218 217 211 211 212 219 211 211
226 225 220 218 217 218 221 219 216 216 224 225 224 222 221 218 220 220 212 210 218 212 207 207 214 214 223 223 221 221 224 218 224 216 217 218 214 215 211 210 211 215 218
227 225 221 218 217 217 217 218 218 216 222 225 224 222 222 220 221 221 216 209 219 214 208 209 213 214 222 228 223 220 220 210 215 217 220 220 215 213 209 210 223 221 217
229 226 223 218 215 215 215 216 217 213 221 225 224 223 223 223 222 217 218 211 215 216 210 210 213 216 219 225 228 221 225 216 209 213 216 223 225 220 218 220 224 222 211
226 224 224 220 215 215 215 214 216 215 217 224 225 224 225 224 221 218 221 216 209 217 211 211 211 213 217 217 223 224 229 223 214 213 214 221 224 223 224 227 226 229 229
Height
10834 10836 10837 10838 10837 10842 10844 10846 10848 10848 10851 10853 10855 10855 10856 10856 10855 10857 10856 10857 10857 10857 10859 10860 10862 10864 10867 10867 10867 10868 10869 10869 10869 10870 10870 10870 10870 10869 10869 10869 10869 10869 10869
10827 10831 10833 10833 10831 10835 10839 10841 10843 10844 10847 10849 10849 10849 10852 10851 10852 10852 10854 10855 10855 10853 10856 10859 10860 10863 10865 10866 10866 10867 10868 10868 10868 10868 10868 10869 10869 10869 10869 10869 10870 10870 10870
10821 10826 10827 10826 10827 10829 10830 10832 10835 10839 10841 10844 10846 10843 10846 10846 10847 10848 10849 10850 10850 10852 10856 10857 10859 10861 10863 10864 10864 10865 10866 10866 10867 10867 10868 10869 10869 10869 10869 10869 10869 10870 10871
10813 10820 10821 10820 10820 10820 10822 10825 10828 10832 10835 10837 10836 10838 10841 10841 10842 10843 10845 10846 10846 10849 10854 10854 10856 10859 10860 10862 10863 10864 10864 10865 10866 10866 10867 10868 10868 10868 10868 10869 10870 10870 10871
10806 10812 10815 10812 10815 10815 10816 10815 10818 10819 10824 10828 10830 10833 10836 10837 10839 10840 10841 10842 10843 10846 10851 10852 10854 10857 10858 10860 10861 10861 10863 10863 10864 10865 10866 10867 10868 10868 10868 10869 10870 10871 10872
10796 10800 10806 10806 10807 10805 10805 10805 10807 10810 10814 10819 10824 10827 10830 10832 10835 10836 10839 10839 10841 10844 10847 10849 10852 10854 10856 10858 10859 10859 10861 10862 10863 10863 10864 10865 10866 10867 10868 10869 10870 10871 10872
10785 10791 10794 10796 10795 10794 10794 10795 10797 10799 10806 10811 10817 10820 10822 10825 10830 10833 10835 10837 10838 10841 10842 10845 10849 10852 10854 10855 10855 10857 10858 10859 10860 10861 10862 10863 10865 10866 10867 10869 10870 10872 10873
10776 10781 10782 10783 10781 10782 10783 10786 10789 10791 10796 10803 10809 10815 10818 10820 10824 10829 10830 10833 10834 10836 10838 10844 10848 10849 10850 10850 10853 10856 10855 10855 10857 10859 10859 10860 10862 10865 10867 10869 10870 10871 10872
10764 10766 10770 10773 10772 10771 10771 10773 10778 10782 10788 10796 10802 10809 10810 10814 10819 10823 10826 10828 10830 10832 10834 10840 10844 10843 10847 10850 10851 10852 10852 10852 10854 10855 10856 10858 10861 10863 10866 10868 10869 10870 10871
10746 10754 10758 10760 10759 10757 10759 10763 10769 10773 10778 10788 10796 10801 10805 10810 10813 10817 10821 10824 10827 10827 10835 10837 10843 10846 10847 10848 10848 10848 10850 10850 10852 10853 10853 10855 10859 10862 10864 10867 10868 10869 10870
10729 10738 10742 10748 10748 10743 10747 10753 10760 10762 10770 10776 10790 10794 10799 10807 10808 10811 10815 10820 10823 10822 10829 10833 10839 10841 10843 10844 10845 10845 10847 10848 10850 10851 10851 10854 10857 10860 10863 10865 10867 10868 10869
10710 10719 10725 10732 10736 10735 10733 10738 10747 10748 10757 10767 10782 10787 10792 10800 10803 10804 10810 10816 10818 10819 10822 10827 10831 10836 10838 10840 10841 10842 10844 10845 10848 10848 10849 10852 10856 10859 10862 10864 10866 10867 10868
10688 10698 10705 10713 10719 10724 10722 10724 10736 10736 10745 10758 10770 10781 10785 10792 10795 10798 10802 10809 10813 10816 10817 10822 10825 10829 10835 10837 10837 10840 10841 10843 10845 10846 10849 10851 10854 10857 10860 10863 10864 10866 10866
10664 10673 10680 10690 10699 10708 10710 10711 10719 10725 10731 10748 10758 10769 10777 10781 10786 10789 10794 10801 10806 10810 10814 10817 10822 10827 10831 10833 10832 10837 10838 10840 10842 10844 10847 10849 10852 10855 10858 10861 10862 10864 10864
10636 10647 10655 10664 10676 10687 10696 10697 10702 10714 10720 10737 10748 10757 10768 10770 10776 10781 10787 10793 10799 10802 10806 10811 10815 10822 10827 10829 10828 10832 10835 10837 10839 10841 10845 10847 10850 10853 10855 10858 10860 10861 10862
10618 10625 10632 10642 10653 10665 10677 10682 10688 10699 10709 10724 10736 10746 10758 10762 10764 10771 10778 10784 10790 10793 10799 10803 10808 10814 10821 10824 10824 10829 10831 10834 10835 10839 10842 10844 10847 10850 10853 10856 10858 10859 10860
10598 10605 10614 10622 10631 10643 10654 10665 10671 10683 10696 10708 10721 10734 10745 10752 10757 10761 10768 10775 10781 10787 10793 10797 10802 10808 10815 10818 10819 10825 10826 10829 10832 10836 10838 10841 10843 10847 10850 10852 10854 10856 10857
10576 10584 10592 10604 10613 10623 10633 10646 10656 10665 10680 10694 10708 10720 10731 10740 10747 10750 10755 10764 10769 10778 10784 10790 10795 10802 10807 10811 10813 10818 10820 10824 10827 10830 10834 10837 10839 10843 10846 10849 10851 10853 10854
10552 10560 10568 10581 10592 10604 10614 10628 10643 10648 10664 10678 10693 10703 10716 10728 10734 10740 10743 10751 10758 10767 10776 10783 10787 10790 10799 10804 10807 10812 10814 10819 10822 10824 10828 10831 10834 10838 10842 10845 10847 10849 10851
10523 10534 10543 10556 10571 10583 10595 10609 10623 10631 10645 10662 10678 10688 10700 10712 10722 10729 10732 10740 10748 10758 10766 10774 10780 10784 10791 10797 10801 10805 10808 10813 10815 10818 10821 10825 10828 10833 10836 10840 10842 10845 10847
10488 10504 10517 10534 10550 10563 10576 10590 10604 10618 10623 10642 10658 10672 10684 10697 10709 10717 10721 10729 10735 10742 10756 10762 10770 10772 10784 10789 10794 10797 10802 10805 10808 10811 10814 10818 10822 10826 10831 10835 10837 10840 10842
10452 10472 10489 10507 10527 10543 10555 10570 10582 10597 10608 10621 10641 10656 10670 10681 10693 10703 10711 10716 10724 10736 10745 10754 10760 10767 10774 10780 10786 10788 10792 10797 10800 10803 10808 10812 10816 10821 10824 10828 10832 10835 10838
10421 10437 10459 10481 10502 10521 10533 10549 10564 10577 10591 10604 10621 10636 10650 10664 10678 10689 10699 10707 10711 10724 10735 10743 10751 10758 10763 10770 10774 10779 10783 10788 10792 10797 10801 10806 10809 10814 10817 10821 10826 10830 10833
10396 10411 10431 10455 10477 10496 10511 10527 10545 10559 10571 10581 10602 10619 10632 10646 10660 10674 10685 10694 10699 10710 10724 10733 10741 10746 10753 10755 10761 10767 10773 10777 10783 10790 10795 10799 10804 10807 10811 10816 10821 10824 10827
10374 10389 10406 10429 10452 10471 10487 10505 10522 10538 10551 10561 10581 10601 10614 10628 10642 10657 10668 10680 10688 10699 10712 10720 10728 10736 10741 10745 10751 10760 10765 10769 10771 10778 10785 10792 10796 10800 10805 10809 10814 10816 10820
10343 10361 10377 10402 10426 10443 10461 10480 10499 10515 10531 10540 10559 10580 10596 10610 10624 10638 10651 10664 10675 10687 10698 10708 10715 10724 10730 10736 10739 10750 10755 10760 10763 10767 10773 10780 10786 10791 10797 10802 10806 10810 10813